EW1617 Weather Reports


Display with metric or nautical units.
time (UTC)temp
F
wind
direction
speed
MPH
gust
MPH
rain 1hr
in
rain 24hr
in
rain mn
in
humidity
%
barometer
mb
20190216113010 39 135 0.0 2.0 0.00 0.03 0.00 100 1006.8
20190216112509 39 180 2.0 2.0 0.00 0.03 0.00 100 1006.8
20190216112009 39 180 2.0 2.0 0.00 0.03 0.00 100 1006.7
20190216111509 39 180 0.0 1.0 0.00 0.03 0.00 100 1006.7
20190216111009 39 135 0.0 0.0 0.00 0.03 0.00 100 1006.7
20190216110509 39 0 0.0 0.0 0.00 0.03 0.00 100 1006.6
20190216110009 39 270 0.0 1.0 0.00 0.03 0.00 100 1006.6
20190216105509 39 225 0.0 0.0 0.00 0.03 0.00 100 1006.6
20190216105014 39 225 0.0 1.0 0.00 0.03 0.00 100 1006.5
20190216104509 39 225 0.0 0.0 0.00 0.03 0.00 100 1006.5
20190216104011 39 180 0.0 1.0 0.00 0.03 0.00 100 1006.5
20190216103509 39 135 0.0 1.0 0.00 0.03 0.00 100 1006.5
20190216103009 39 180 0.0 3.0 0.00 0.03 0.00 100 1006.5
20190216102509 39 180 0.0 3.0 0.00 0.03 0.00 100 1006.6
20190216102009 39 225 0.0 4.0 0.00 0.03 0.00 100 1006.7
20190216101509 39 180 0.0 4.0 0.00 0.03 0.00 100 1006.6
20190216101009 40 180 2.0 5.0 0.00 0.03 0.00 100 1006.6
20190216100509 40 180 1.0 4.0 0.00 0.03 0.00 100 1006.5
20190216100009 40 180 1.0 3.0 0.00 0.03 0.00 100 1006.5
20190216095509 40 180 0.0 3.0 0.00 0.03 0.00 100 1006.3
20190216095009 40 225 1.0 5.0 0.00 0.03 0.00 100 1006.2
20190216094514 40 225 3.0 5.0 0.00 0.03 0.00 100 1006.1
20190216094009 41 270 0.0 2.0 0.00 0.03 0.00 100 1006.0
20190216093509 41 135 0.0 2.0 0.00 0.03 0.00 100 1005.9
20190216093009 41 135 0.0 2.0 0.00 0.03 0.00 100 1005.9
20190216092509 41 180 0.0 2.0 0.00 0.03 0.00 100 1005.9
20190216092008 41 180 0.0 3.0 0.00 0.03 0.00 100 1005.9
20190216091508 41 180 0.0 3.0 0.00 0.03 0.00 100 1006.0
20190216091009 41 135 1.0 2.0 0.00 0.03 0.00 100 1005.9
20190216090509 41 135 0.0 2.0 0.00 0.03 0.00 100 1005.9
20190216090010 41 225 2.0 3.0 0.00 0.03 0.00 100 1005.9
20190216085510 41 225 2.0 3.0 0.00 0.03 0.00 100 1005.8
20190216085010 41 225 1.0 5.0 0.00 0.03 0.00 100 1005.8
20190216084510 41 315 0.0 5.0 0.00 0.03 0.00 100 1005.8
20190216084009 41 180 2.0 3.0 0.00 0.03 0.00 100 1005.8
20190216083509 41 180 2.0 3.0 0.00 0.03 0.00 100 1005.8
20190216083009 41 225 1.0 6.0 0.00 0.03 0.00 100 1005.9
20190216082510 41 225 1.0 6.0 0.00 0.00 0.00 100 1005.9
20190216082009 41 225 1.0 4.0 0.00 0.00 0.00 100 1006.0
20190216081509 41 180 0.0 4.0 0.00 0.00 0.00 100 1005.9
20190216081010 41 315 1.0 4.0 0.00 0.00 0.00 100 1005.8
20190216080510 41 180 2.0 4.0 0.00 0.00 0.00 100 1005.8
20190216075509 41 180 0.0 3.0 0.00 0.26 0.00 100 1005.8
20190216075009 41 225 1.0 4.0 0.00 0.26 0.00 100 1005.8
20190216074509 41 270 1.0 2.0 0.00 0.26 0.00 100 1005.8
20190216074009 41 225 0.0 2.0 0.00 0.26 0.00 100 1005.7
20190216073509 41 315 0.0 2.0 0.00 0.26 0.00 100 1005.7
20190216073014 41 135 0.0 3.0 0.00 0.26 0.00 100 1005.6
20190216072509 41 270 0.0 3.0 0.00 0.26 0.00 100 1005.7
20190216072009 41 225 0.0 1.0 0.00 0.26 0.00 100 1005.7
20190216071509 41 270 0.0 1.0 0.00 0.26 0.00 100 1005.7
20190216071009 41 45 0.0 4.0 0.00 0.26 0.00 100 1005.7
20190216070510 41 225 0.0 4.0 0.00 0.26 0.00 100 1005.6
20190216070009 41 315 1.0 4.0 0.00 0.26 0.00 100 1005.5
20190216065509 41 45 0.0 4.0 0.00 0.26 0.00 100 1005.6
20190216065010 40 225 0.0 3.0 0.00 0.26 0.00 100 1005.5
20190216064509 41 270 0.0 1.0 0.00 0.26 0.00 100 1005.5
20190216064009 41 225 0.0 0.0 0.00 0.26 0.00 100 1005.5
20190216063509 40 180 2.0 5.0 0.00 0.26 0.00 100 1005.4
20190216063009 40 225 1.0 2.0 0.00 0.26 0.00 100 1005.5
20190216062509 40 180 0.0 1.0 0.00 0.26 0.00 100 1005.4
20190216062009 40 225 0.0 1.0 0.00 0.26 0.00 100 1005.5
20190216061509 40 225 0.0 0.0 0.00 0.26 0.00 100 1005.5
20190216061009 40 90 0.0 0.0 0.00 0.26 0.00 100 1005.6
20190216060509 40 90 0.0 0.0 0.00 0.26 0.00 100 1005.5
20190216060009 39 90 0.0 0.0 0.00 0.26 0.00 100 1005.5
20190216055509 39 0 0.0 0.0 0.00 0.26 0.00 100 1005.4
20190216055009 40 90 0.0 0.0 0.00 0.26 0.00 100 1005.4
20190216054509 40 225 0.0 0.0 0.00 0.26 0.00 100 1005.3
20190216054009 40 135 0.0 0.0 0.00 0.26 0.00 100 1005.3
20190216053509 40 135 0.0 0.0 0.00 0.26 0.00 100 1005.2
20190216053009 40 180 0.0 0.0 0.00 0.26 0.00 100 1005.2
20190216052510 40 45 0.0 0.0 0.00 0.26 0.00 100 1005.2
20190216052009 40 45 0.0 0.0 0.00 0.23 0.00 100 1005.2
20190216051508 40 90 0.0 0.0 0.00 0.23 0.00 100 1005.2
20190216051009 40 180 0.0 0.0 0.00 0.23 0.00 100 1005.2
20190216050509 40 180 0.0 0.0 0.00 0.23 0.00 100 1005.1
20190216050009 40 180 0.0 0.0 0.00 0.23 0.00 100 1005.2
20190216045509 40 315 0.0 0.0 0.00 0.23 0.00 100 1005.2
20190216045009 40 180 0.0 0.0 0.00 0.23 0.00 100 1005.2
20190216044509 40 0 0.0 1.0 0.00 0.23 0.00 100 1005.1
20190216044009 40 90 0.0 0.0 0.00 0.23 0.00 100 1005.1
20190216043508 41 45 0.0 2.0 0.00 0.23 0.00 100 1005.1
20190216043009 41 180 0.0 0.0 0.00 0.23 0.00 100 1005.0
20190216042509 41 0 0.0 0.0 0.00 0.23 0.00 100 1005.0
20190216042008 42 135 0.0 0.0 0.00 0.23 0.00 100 1004.9
20190216041509 42 90 0.0 0.0 0.00 0.23 0.00 98 1004.8
20190216041014 42 0 0.0 0.0 0.00 0.23 0.00 96 1004.8
20190216040510 42 315 0.0 2.0 0.00 0.23 0.00 95 1004.8
20190216040009 42 180 0.0 1.0 0.00 0.23 0.00 95 1004.7
20190216035509 42 45 0.0 2.0 0.00 0.23 0.00 98 1004.8
20190216035009 42 180 0.0 1.0 0.00 0.23 0.00 98 1004.8
20190216034509 42 225 0.0 2.0 0.00 0.23 0.00 99 1004.8
20190216034009 42 135 0.0 0.0 0.00 0.23 0.00 99 1004.8
20190216033509 42 225 0.0 4.0 0.00 0.23 0.00 98 1004.8
20190216033009 43 225 1.0 3.0 0.00 0.23 0.00 96 1005.0
20190216032509 43 270 1.0 8.0 0.00 0.23 0.00 94 1005.1
20190216032009 42 0 0.0 0.0 0.00 0.23 0.00 100 1004.9
20190216031509 42 270 0.0 1.0 0.00 0.23 0.00 98 1004.9
20190216031009 43 180 0.0 1.0 0.00 0.23 0.00 95 1004.8
20190216030509 42 270 0.0 2.0 0.00 0.23 0.00 95 1004.8
20190216030009 42 225 0.0 1.0 0.00 0.23 0.00 96 1004.7
20190216025509 42 225 0.0 1.0 0.00 0.23 0.00 100 1004.6
20190216025014 42 180 0.0 1.0 0.00 0.23 0.00 100 1004.6
20190216024509 42 90 0.0 0.0 0.00 0.23 0.00 100 1004.6
20190216024008 42 0 0.0 0.0 0.00 0.23 0.00 100 1004.6
20190216023510 42 180 0.0 2.0 0.00 0.23 0.00 100 1004.6
20190216023009 42 315 0.0 0.0 0.00 0.23 0.00 100 1004.5
20190216022509 42 90 0.0 0.0 0.00 0.23 0.00 100 1004.5
20190216022009 42 315 0.0 0.0 0.00 0.23 0.00 100 1004.5
20190216021509 42 225 1.0 2.0 0.00 0.23 0.00 100 1004.5
20190216021009 42 225 0.0 0.0 0.00 0.20 0.00 100 1004.4
20190216020510 42 225 0.0 0.0 0.00 0.20 0.00 100 1004.3
20190216020009 42 225 0.0 0.0 0.00 0.20 0.00 100 1004.3
20190216015509 43 180 1.0 1.0 0.00 0.20 0.00 100 1004.3
20190216015009 43 45 0.0 0.0 0.00 0.20 0.00 98 1004.3
20190216014509 43 180 0.0 3.0 0.00 0.20 0.00 96 1004.5
20190216014008 43 135 1.0 2.0 0.00 0.20 0.00 95 1004.4
20190216013508 43 180 1.0 3.0 0.00 0.20 0.00 94 1004.4
20190216013009 43 180 1.0 3.0 0.00 0.20 0.00 92 1004.4
20190216012509 43 180 3.0 5.0 0.00 0.20 0.00 93 1004.4
20190216012009 43 0 0.0 2.0 0.00 0.20 0.00 95 1004.4
20190216011509 43 180 2.0 5.0 0.00 0.17 0.00 96 1004.3
20190216011009 42 225 0.0 1.0 0.00 0.17 0.00 99 1004.3
20190216010510 42 225 0.0 2.0 0.00 0.17 0.00 100 1004.2
20190216010009 42 135 0.0 2.0 0.00 0.17 0.00 100 1004.3
20190216005509 43 90 0.0 2.0 0.00 0.17 0.00 100 1004.2
20190216005009 43 0 0.0 1.0 0.00 0.17 0.00 99 1004.2
20190216004509 43 135 0.0 2.0 0.00 0.17 0.00 99 1004.2
20190216004009 44 90 0.0 1.0 0.00 0.17 0.00 99 1003.9
20190216003509 44 0 2.0 2.0 0.00 0.17 0.00 99 1003.8
20190216003009 44 225 0.0 0.0 0.00 0.17 0.00 99 1003.8
20190216002509 44 45 0.0 1.0 0.00 0.17 0.00 97 1003.9
20190216002009 44 225 1.0 1.0 0.00 0.17 0.00 96 1003.9
20190216001509 44 180 0.0 0.0 0.00 0.17 0.00 98 1003.9
20190216001009 44 225 0.0 0.0 0.00 0.17 0.00 98 1003.9
20190216000517 44 90 0.0 1.0 0.00 0.17 0.00 98 1003.9
20190216000009 44 90 0.0 0.0 0.00 0.17 0.00 97 1003.9
20190215235509 44 270 0.0 1.0 0.00 0.17 0.00 98 1003.8
20190215235009 44 225 0.0 1.0 0.00 0.17 0.00 99 1003.9
20190215234514 44 45 0.0 2.0 0.00 0.17 0.00 99 1003.9
20190215234009 44 135 0.0 2.0 0.00 0.17 0.00 100 1003.9
20190215233510 44 180 0.0 2.0 0.00 0.17 0.00 100 1003.9
20190215233009 43 0 0.0 1.0 0.00 0.17 0.00 100 1004.1
20190215232509 43 180 0.0 2.0 0.00 0.17 0.00 99 1004.0
20190215232009 44 45 0.0 1.0 0.00 0.17 0.00 98 1004.0
20190215231509 44 315 3.0 4.0 0.00 0.17 0.00 93 1004.1
20190215231009 45 180 1.0 3.0 0.00 0.13 0.00 91 1004.1
20190215230509 45 270 2.0 8.0 0.00 0.13 0.00 88 1004.0
20190215230009 46 270 2.0 6.0 0.00 0.13 0.00 82 1004.0
20190215225509 47 225 2.0 5.0 0.00 0.10 0.00 78 1003.8
20190215225009 48 270 1.0 4.0 0.00 0.10 0.00 76 1003.9
20190215224509 48 225 1.0 3.0 0.00 0.10 0.00 75 1003.9
20190215224009 48 225 0.0 3.0 0.00 0.10 0.00 76 1003.8
20190215223509 48 180 2.0 5.0 0.00 0.10 0.00 74 1003.7
20190215223009 48 0 2.0 5.0 0.00 0.10 0.00 75 1003.8
20190215222509 47 225 2.0 6.0 0.00 0.10 0.00 74 1003.9
20190215222009 48 270 1.0 4.0 0.00 0.10 0.00 74 1003.9
20190215221509 48 180 2.0 7.0 0.00 0.10 0.00 74 1003.9
20190215221009 48 270 0.0 7.0 0.00 0.10 0.00 74 1003.8
20190215220509 48 180 3.0 5.0 0.00 0.10 0.00 74 1003.8
20190215220009 48 270 1.0 3.0 0.00 0.10 0.00 74 1004.0
20190215215509 48 225 3.0 5.0 0.00 0.10 0.00 74 1004.0
20190215215009 48 135 1.0 3.0 0.00 0.10 0.00 75 1003.9
20190215214509 48 225 1.0 5.0 0.00 0.10 0.00 75 1003.9
20190215214009 48 225 4.0 4.0 0.00 0.10 0.00 74 1004.0
20190215213509 48 225 1.0 6.0 0.00 0.10 0.00 76 1004.0
20190215213009 48 225 1.0 5.0 0.00 0.10 0.00 77 1004.0
20190215212510 48 270 1.0 6.0 0.00 0.10 0.00 78 1004.1
20190215212009 48 225 3.0 6.0 0.00 0.10 0.00 77 1004.0
20190215211509 49 270 3.0 7.0 0.00 0.10 0.00 76 1003.7
20190215211009 49 225 1.0 3.0 0.00 0.10 0.00 79 1003.6
20190215210509 48 225 3.0 5.0 0.00 0.10 0.00 80 1004.1
20190215210009 48 180 1.0 4.0 0.00 0.10 0.00 82 1004.1
20190215205509 47 315 0.0 7.0 0.00 0.10 0.00 83 1004.0
20190215205009 47 270 2.0 7.0 0.00 0.10 0.00 81 1004.0
20190215204509 47 225 2.0 7.0 0.00 0.10 0.00 82 1004.1
20190215204009 46 180 2.0 3.0 0.00 0.10 0.00 84 1004.1
20190215203510 46 180 3.0 7.0 0.00 0.10 0.00 85 1004.1
20190215203009 46 270 5.0 6.0 0.00 0.10 0.00 83 1004.1
20190215202509 47 180 4.0 5.0 0.00 0.10 0.00 83 1004.2
20190215202009 48 225 2.0 5.0 0.00 0.10 0.00 83 1004.1
20190215201509 48 315 0.0 5.0 0.00 0.10 0.00 85 1004.2
20190215201009 47 180 4.0 5.0 0.00 0.10 0.00 85 1004.1
20190215200509 47 225 1.0 6.0 0.00 0.10 0.00 88 1004.1
20190215200009 47 180 0.0 6.0 0.00 0.10 0.00 93 1004.0
20190215195509 46 315 0.0 5.0 0.00 0.10 0.00 92 1004.2
20190215195009 45 270 3.0 5.0 0.00 0.10 0.00 92 1004.2
20190215194509 45 315 3.0 5.0 0.00 0.10 0.00 93 1004.2
20190215194009 46 135 2.0 4.0 0.00 0.10 0.00 94 1004.2
20190215193509 47 90 1.0 5.0 0.00 0.10 0.00 94 1004.0
20190215193009 47 270 1.0 5.0 0.00 0.10 0.00 93 1004.0
20190215192510 46 225 2.0 4.0 0.00 0.10 0.00 98 1004.0
20190215192009 45 270 1.0 4.0 0.00 0.10 0.00 99 1003.9
20190215191510 44 225 0.0 4.0 0.00 0.10 0.00 100 1003.9
20190215191010 42 270 0.0 4.0 0.00 0.10 0.00 100 1004.3
20190215190509 41 180 0.0 4.0 0.00 0.10 0.00 100 1004.3
20190215190010 41 225 0.0 3.0 0.00 0.10 0.00 100 1004.4
20190215185509 40 225 1.0 6.0 0.00 0.10 0.00 100 1004.3
20190215185009 41 180 6.0 6.0 0.00 0.10 0.00 100 1004.4
20190215184509 41 315 1.0 8.0 0.00 0.07 0.00 100 1004.4
20190215184009 41 225 6.0 7.0 0.00 0.07 0.00 100 1004.3
20190215183508 41 180 4.0 9.0 0.00 0.07 0.00 100 1004.1
20190215183009 42 225 0.0 7.0 0.00 0.07 0.00 100 1004.1
20190215182509 42 225 1.0 6.0 0.00 0.07 0.00 100 1004.0
20190215182010 42 180 6.0 6.0 0.00 0.07 0.00 99 1004.0
20190215181509 42 270 2.0 6.0 0.00 0.07 0.00 99 1003.8
20190215181009 42 180 1.0 6.0 0.00 0.07 0.00 99 1003.8
20190215180509 42 135 2.0 6.0 0.00 0.07 0.00 99 1003.7
20190215180009 42 0 1.0 6.0 0.00 0.07 0.00 97 1003.7
20190215175509 42 225 1.0 5.0 0.00 0.07 0.00 97 1003.6
20190215175009 42 180 1.0 5.0 0.00 0.07 0.00 96 1003.5
20190215174509 42 180 2.0 6.0 0.00 0.07 0.00 97 1003.4
20190215174009 42 225 0.0 6.0 0.00 0.07 0.00 97 1003.4
20190215173509 42 315 3.0 6.0 0.00 0.07 0.00 97 1003.3
20190215173009 42 225 4.0 6.0 0.00 0.07 0.00 97 1003.3
20190215172510 42 45 2.0 7.0 0.00 0.07 0.00 97 1003.1
20190215172009 42 225 2.0 7.0 0.00 0.07 0.00 97 1003.1
20190215171509 41 135 1.0 3.0 0.00 0.07 0.00 97 1003.0
20190215171009 41 180 6.0 7.0 0.00 0.07 0.00 97 1002.9
20190215170509 41 180 2.0 2.0 0.00 0.07 0.00 99 1002.8
20190215170009 41 315 1.0 5.0 0.00 0.07 0.00 100 1002.8
20190215165509 40 180 0.0 1.0 0.00 0.07 0.00 100 1002.8
20190215165009 40 180 1.0 7.0 0.00 0.07 0.00 100 1002.6
20190215164509 40 45 2.0 4.0 0.00 0.07 0.00 100 1002.7
20190215164009 40 180 1.0 3.0 0.00 0.07 0.00 100 1002.6
20190215163509 40 180 1.0 2.0 0.00 0.07 0.00 100 1002.6
20190215163009 40 315 2.0 6.0 0.00 0.07 0.00 100 1002.6
20190215162509 40 270 1.0 4.0 0.00 0.07 0.00 100 1002.4
20190215162009 40 270 2.0 7.0 0.00 0.07 0.00 100 1002.3
20190215161509 40 315 0.0 5.0 0.00 0.07 0.00 100 1002.2
20190215161009 40 225 3.0 5.0 0.00 0.07 0.00 100 1002.1
20190215160509 40 180 1.0 2.0 0.00 0.07 0.00 100 1002.1
20190215160009 40 270 2.0 5.0 0.00 0.07 0.00 100 1002.0
20190215155509 40 135 1.0 1.0 0.00 0.07 0.00 100 1001.8
20190215155009 40 180 3.0 6.0 0.00 0.07 0.00 100 1001.7
20190215154509 40 315 1.0 2.0 0.00 0.07 0.00 100 1001.5
20190215154009 40 180 2.0 5.0 0.00 0.07 0.00 100 1001.5
20190215153509 40 270 1.0 4.0 0.00 0.07 0.00 100 1001.4
20190215153010 40 180 0.0 8.0 0.00 0.03 0.00 100 1001.4
20190215152509 40 225 0.0 0.0 0.00 0.03 0.00 100 1001.4
20190215152009 40 225 2.0 4.0 0.00 0.03 0.00 100 1001.3
20190215151509 40 270 1.0 1.0 0.00 0.03 0.00 100 1001.1
20190215151010 40 315 1.0 2.0 0.00 0.03 0.00 100 1000.9
20190215150509 40 0 0.0 0.0 0.00 0.03 0.00 100 1000.8
20190215150009 39 0 2.0 2.0 0.00 0.03 0.00 100 1000.6
20190215145510 39 180 0.0 2.0 0.00 0.03 0.00 100 1000.6
20190215145009 40 180 0.0 4.0 0.00 0.03 0.00 100 1000.6
20190215144509 40 180 2.0 4.0 0.00 0.03 0.00 100 1000.5
20190215144009 40 90 1.0 6.0 0.00 0.03 0.00 100 1000.3
20190215143509 40 180 2.0 6.0 0.00 0.03 0.00 100 1000.2
20190215143009 40 180 0.0 5.0 0.00 0.03 0.00 100 1000.2
20190215142509 40 225 2.0 3.0 0.00 0.03 0.00 100 1000.3
20190215142008 40 180 0.0 5.0 0.00 0.03 0.00 100 1000.3
20190215141509 40 90 5.0 5.0 0.00 0.03 0.00 100 1000.3
20190215141009 40 225 0.0 6.0 0.00 0.03 0.00 100 1000.3
20190215140509 40 180 2.0 6.0 0.00 0.03 0.00 100 1000.2
20190215140009 40 270 0.0 4.0 0.00 0.03 0.00 100 1000.2
20190215135510 40 90 0.0 1.0 0.00 0.03 0.00 100 999.9
20190215135009 40 225 1.0 3.0 0.00 0.03 0.00 100 1000.0
20190215134510 40 180 1.0 2.0 0.00 0.03 0.00 100 999.9
20190215134009 40 180 1.0 3.0 0.00 0.03 0.00 100 999.9
20190215133510 40 180 0.0 0.0 0.00 0.03 0.00 100 999.9
20190215133009 40 90 0.0 1.0 0.00 0.03 0.00 100 999.9
20190215132509 40 225 0.0 1.0 0.00 0.03 0.00 100 999.8
20190215132010 40 315 0.0 3.0 0.00 0.03 0.00 100 999.7
20190215131509 40 0 0.0 0.0 0.00 0.03 0.00 100 999.6
20190215131010 40 270 1.0 2.0 0.00 0.03 0.00 100 999.5
20190215130509 40 225 0.0 2.0 0.00 0.03 0.00 100 999.4
20190215130009 40 180 0.0 1.0 0.00 0.03 0.00 100 999.2
20190215125509 40 270 0.0 0.0 0.00 0.03 0.00 100 999.0
20190215125009 40 45 0.0 2.0 0.00 0.03 0.00 100 998.8
20190215124510 40 180 0.0 0.0 0.00 0.03 0.00 100 998.7
20190215124009 40 180 0.0 2.0 0.00 0.03 0.00 100 998.6
20190215123509 41 225 0.0 2.0 0.00 0.03 0.00 100 998.6
20190215123009 41 180 2.0 5.0 0.00 0.03 0.00 100 998.5
20190215122509 41 135 0.0 3.0 0.00 0.03 0.00 98 998.6
20190215122008 41 135 1.0 5.0 0.00 0.00 0.00 98 998.6
20190215121509 41 225 1.0 5.0 0.00 0.00 0.00 97 998.5
20190215121009 41 180 1.0 5.0 0.00 0.00 0.00 97 998.5
20190215120509 41 180 1.0 3.0 0.00 0.00 0.00 98 998.5
20190215120009 41 270 0.0 2.0 0.00 0.00 0.00 99 998.4
20190215115509 41 0 1.0 2.0 0.00 0.00 0.00 99 998.3
20190215115009 41 270 0.0 3.0 0.00 0.00 0.00 99 998.2
20190215114509 41 180 1.0 3.0 0.00 0.00 0.00 97 998.1
20190215114009 41 180 0.0 2.0 0.00 0.00 0.00 99 998.0
20190215113509 41 225 0.0 2.0 0.00 0.00 0.00 98 997.9